Wind_Speed
2 2 1 1 1 1 2 3 4 4 5 5 4 4 4 3 3 3 2 2 2 3 3 3 4 4 5 5 5 5 5 5 5 4 4 3 3 3 4 4 5 5 6
3 3 2 1 1 2 3 4 5 6 6 6 6 5 5 5 5 4 4 4 4 4 4 4 4 4 4 5 4 5 5 5 4 4 3 3 2 2 3 3 5 4 5
4 4 4 3 3 4 4 5 6 7 7 7 7 7 7 7 7 7 7 7 7 6 6 6 6 5 5 5 5 5 5 5 4 3 3 2 1 1 2 3 4 4 5
5 5 4 5 5 5 6 7 7 8 8 8 8 9 9 9 9 9 9 9 9 9 9 8 8 7 7 6 6 6 5 5 5 4 3 2 1 0 1 3 4 4 5
5 5 5 6 6 7 8 8 9 9 9 9 10 10 11 11 11 11 11 11 11 11 10 10 9 9 9 8 8 8 7 7 6 5 4 3 2 1 1 2 3 3 4
5 5 6 7 8 8 9 10 10 11 11 11 11 12 12 13 13 13 13 13 13 13 12 12 11 11 11 10 10 10 10 9 8 7 6 4 4 3 2 2 3 3 4
6 7 8 8 9 10 10 11 12 12 12 13 14 14 14 15 14 14 15 15 15 15 14 13 13 13 12 12 12 12 12 11 10 9 8 7 6 5 4 4 4 4 4
7 8 9 10 11 11 12 13 14 14 14 15 15 16 17 17 17 17 16 17 17 16 16 15 15 14 14 14 13 13 13 13 13 12 11 10 9 8 7 6 6 5 5
8 10 11 12 12 13 14 15 16 16 17 17 18 18 19 19 19 19 19 19 19 19 18 18 17 16 16 15 15 15 15 15 15 14 13 13 12 11 10 9 8 7 7
11 12 13 14 14 14 15 17 18 18 19 20 20 20 20 20 20 21 21 22 22 21 21 20 19 19 19 18 17 16 16 17 17 16 15 15 15 14 13 12 11 10 9
13 14 15 15 15 16 17 18 19 20 21 22 23 23 23 23 23 22 22 24 23 23 23 22 22 22 21 21 20 19 18 19 18 17 16 16 17 17 16 15 14 13 12
16 16 16 16 16 17 18 19 20 21 22 21 22 22 24 25 24 23 23 24 24 24 23 23 23 24 23 23 23 21 21 21 20 19 18 18 19 19 18 18 18 17 16
18 18 17 16 17 18 19 20 20 21 21 20 19 20 21 23 22 22 22 21 22 23 23 23 24 24 24 23 22 21 21 21 21 21 20 20 20 21 21 21 21 20 19
18 18 18 17 17 18 19 19 19 20 20 19 20 21 21 21 21 21 21 21 22 22 23 24 24 23 24 23 22 21 21 21 21 21 21 21 21 21 21 23 23 23 22
18 18 19 18 18 18 18 18 19 19 19 19 19 19 20 20 20 21 21 21 21 21 21 22 23 24 23 22 22 22 21 21 21 20 21 21 21 21 22 23 23 23 24
18 18 18 17 17 17 18 17 18 18 18 18 18 18 19 19 19 20 21 21 21 20 20 22 23 23 23 23 22 22 21 22 22 21 21 21 22 22 23 25 25 25 25
16 16 16 15 15 15 16 17 17 18 17 18 18 18 19 20 20 21 21 21 21 21 21 22 23 23 23 23 23 23 23 23 23 23 23 22 23 23 23 25 26 26 27
15 15 14 13 14 14 15 16 17 17 17 17 18 19 20 21 21 22 22 22 23 23 23 23 23 23 23 23 23 23 23 23 24 24 25 25 25 25 26 25 26 28 29
14 14 13 13 13 13 14 15 16 17 17 18 18 19 20 21 22 22 22 22 23 23 23 23 23 23 24 24 24 24 23 24 24 25 26 27 27 27 27 27 27 28 30
12 12 12 13 13 13 14 15 16 16 17 18 18 19 20 21 21 22 22 21 22 22 22 23 23 23 24 24 24 25 25 25 25 26 26 27 28 28 28 28 29 29 30
11 11 11 11 12 12 13 15 16 16 17 18 18 19 20 20 20 21 21 21 21 21 21 22 23 23 24 24 24 25 26 26 27 27 27 27 28 29 29 30 30 30 30
11 10 10 11 12 13 14 15 16 17 17 18 18 18 19 20 20 20 20 21 21 21 21 21 22 23 24 24 25 26 26 27 27 28 28 29 29 30 30 31 31 31 32
8 9 10 11 12 12 13 15 16 17 17 18 18 18 19 19 19 20 20 20 21 21 21 21 21 22 23 24 24 25 26 27 28 29 29 30 30 31 31 32 32 32 33
8 9 9 10 11 12 14 16 17 17 18 19 19 19 19 19 20 20 21 21 21 21 22 22 22 23 23 24 24 25 26 27 28 29 30 31 31 31 32 32 33 33 33
6 7 8 10 11 13 15 16 17 19 19 20 20 21 21 21 21 22 22 23 23 23 24 24 24 24 24 25 26 26 27 28 28 29 30 32 32 32 33 33 34 34 35
7 8 9 11 13 14 16 17 18 20 21 21 22 22 23 23 23 23 23 24 25 25 25 26 26 26 27 27 27 28 28 29 29 30 31 32 33 34 34 34 35 35 36
Wind_Direction
311 320 339 23 37 357 310 302 302 302 300 298 299 298 297 299 304 312 320 328 343 359 11 14 15 17 19 21 21 21 22 23 25 26 29 37 53 71 85 104 110 115 125
294 302 308 320 330 316 304 302 304 304 300 297 296 295 292 290 291 294 297 298 302 311 320 329 337 344 348 352 355 358 1 3 8 13 14 21 39 65 81 110 115 121 131
287 293 300 305 304 305 303 303 303 305 301 297 296 296 292 288 287 287 288 289 293 297 302 306 310 315 319 322 324 329 335 337 341 353 349 353 11 62 91 114 119 127 135
285 289 298 306 306 306 305 302 302 302 301 297 294 294 291 288 287 286 287 288 291 292 293 296 298 298 300 300 299 301 307 313 314 319 314 316 318 329 128 127 129 132 137
289 291 298 306 307 306 304 301 300 301 300 297 294 293 290 289 289 287 287 289 291 290 290 290 291 290 288 288 287 286 288 291 292 293 293 289 274 261 223 170 156 152 148
299 304 306 308 305 304 304 302 300 300 299 297 295 294 294 293 292 289 286 287 288 287 286 285 286 286 283 281 280 278 278 279 279 279 278 274 266 257 244 220 197 182 172
305 306 309 309 306 303 304 304 300 297 296 295 294 293 293 292 292 290 285 284 285 284 282 281 281 281 279 279 277 274 273 273 272 270 269 265 260 255 249 236 220 209 198
308 310 311 310 306 302 300 298 296 294 292 291 291 290 291 289 288 287 285 280 280 280 279 277 276 276 277 277 276 274 270 269 269 267 262 260 256 253 249 242 232 222 216
316 312 312 308 303 299 297 293 292 289 288 287 286 285 285 285 283 282 281 278 276 274 273 273 271 272 274 276 275 274 268 269 270 268 261 256 254 252 247 243 239 230 223
314 313 311 307 302 298 294 290 289 287 287 287 284 282 282 281 279 278 276 274 272 270 269 269 269 270 271 271 272 270 268 268 270 267 260 257 254 250 245 242 240 237 230
309 309 308 305 301 296 293 290 289 287 286 283 283 281 280 277 276 277 277 275 271 269 267 266 267 269 269 267 268 268 266 266 268 266 257 251 253 250 245 241 239 237 235
306 306 306 303 298 294 291 289 290 289 288 286 286 284 283 282 280 281 284 281 272 270 267 266 268 269 268 265 264 265 266 265 264 262 255 250 252 251 246 242 239 237 236
302 304 302 300 297 295 293 291 293 292 289 292 293 291 290 289 286 285 289 287 281 272 266 266 267 268 267 264 263 265 264 266 265 261 254 252 251 247 246 243 240 237 236
297 299 299 299 297 297 296 294 294 294 294 295 295 297 297 295 291 289 290 289 287 281 274 270 269 269 268 266 265 264 262 263 264 263 259 256 254 249 246 243 241 238 236
295 296 296 297 297 296 297 297 297 297 298 297 295 298 299 296 293 293 291 295 293 287 281 276 274 274 274 270 270 268 262 262 262 263 262 259 254 250 245 241 241 238 236
292 294 295 297 295 296 299 300 300 298 299 298 296 297 301 301 298 294 294 294 292 288 285 281 278 277 275 272 271 267 264 262 262 263 262 257 253 250 249 244 240 239 237
292 295 296 295 293 295 297 298 299 298 298 299 299 299 300 300 298 297 295 295 292 290 288 286 282 279 278 275 271 267 266 263 263 262 261 258 254 251 252 247 242 240 238
290 292 293 294 293 295 296 298 298 298 299 298 299 300 299 299 298 296 294 294 291 290 288 286 284 281 278 276 272 269 267 265 264 262 261 260 256 254 252 249 245 242 240
283 287 291 293 293 293 296 301 303 303 304 303 303 303 302 301 301 299 297 295 292 291 289 286 283 280 278 276 273 270 268 267 265 263 261 260 257 255 252 251 248 245 242
279 284 288 293 296 297 300 305 307 307 307 308 309 307 305 304 303 302 301 297 294 292 290 287 285 282 280 277 274 273 270 268 266 264 262 261 258 255 252 251 249 247 244
274 280 286 293 299 303 305 307 309 310 311 312 312 311 310 309 308 306 303 301 298 296 293 290 287 284 282 279 276 274 272 270 267 265 264 263 259 257 255 253 251 248 246
272 281 289 295 302 306 310 314 316 317 318 317 316 316 315 313 311 308 306 304 302 300 298 295 291 287 284 282 279 276 274 272 269 267 266 264 261 257 255 253 252 250 248
280 289 294 299 305 312 319 322 323 323 324 324 322 321 319 317 316 314 311 308 306 304 301 299 297 294 290 286 283 280 277 275 272 269 266 264 262 259 256 254 252 251 249
288 295 299 307 313 319 323 326 328 328 328 328 327 325 322 320 318 316 314 311 308 306 304 302 300 297 294 291 287 284 281 277 274 272 268 265 263 261 259 256 253 252 249
300 305 311 316 320 324 327 328 330 331 331 330 328 326 323 321 318 315 312 311 309 307 305 303 301 299 296 293 289 286 283 280 277 274 271 268 264 262 259 257 255 254 251
315 316 321 324 328 330 331 332 332 332 331 330 329 327 325 322 318 314 310 309 308 307 306 304 302 299 297 294 291 288 284 281 279 276 273 270 267 264 261 258 256 254 252
Height
5911 5911 5911 5911 5911 5911 5911 5911 5911 5911 5911 5910 5910 5909 5909 5908 5908 5907 5907 5907 5906 5906 5905 5905 5904 5904 5903 5903 5902 5902 5901 5901 5900 5900 5900 5900 5900 5900 5900 5900 5901 5901 5902
5910 5910 5911 5911 5911 5911 5911 5911 5911 5911 5910 5910 5910 5910 5909 5909 5908 5908 5907 5907 5907 5906 5906 5905 5905 5904 5904 5903 5903 5902 5902 5901 5901 5901 5901 5901 5901 5901 5901 5901 5902 5902 5903
5910 5910 5910 5910 5910 5911 5911 5911 5911 5910 5910 5910 5910 5909 5909 5909 5908 5908 5907 5907 5907 5906 5906 5905 5905 5904 5904 5903 5903 5903 5902 5902 5901 5901 5901 5901 5901 5902 5902 5902 5903 5903 5904
5909 5909 5909 5909 5910 5910 5910 5910 5910 5910 5909 5909 5909 5909 5908 5908 5908 5907 5907 5906 5906 5906 5905 5905 5905 5904 5904 5903 5903 5902 5902 5902 5902 5902 5902 5902 5902 5902 5903 5903 5903 5904 5905
5909 5909 5909 5909 5909 5909 5909 5909 5909 5909 5909 5908 5908 5908 5907 5907 5907 5906 5906 5906 5905 5905 5904 5904 5904 5903 5903 5903 5902 5902 5902 5902 5902 5902 5901 5902 5902 5902 5903 5903 5904 5904 5905
5908 5908 5908 5908 5908 5908 5908 5908 5908 5908 5907 5907 5907 5906 5906 5906 5905 5905 5905 5904 5904 5903 5903 5902 5902 5902 5902 5901 5901 5901 5901 5901 5901 5901 5901 5902 5902 5902 5903 5903 5904 5905 5905
5907 5907 5907 5907 5907 5907 5907 5907 5906 5906 5906 5906 5905 5905 5904 5904 5904 5903 5903 5902 5902 5901 5901 5901 5900 5900 5900 5900 5900 5899 5899 5899 5899 5900 5900 5901 5901 5902 5902 5903 5904 5905 5905
5905 5905 5905 5905 5905 5905 5905 5905 5905 5904 5904 5904 5903 5903 5902 5902 5901 5901 5900 5900 5899 5899 5899 5898 5898 5898 5898 5898 5897 5897 5897 5897 5898 5898 5899 5899 5900 5901 5902 5902 5903 5904 5905
5904 5904 5903 5903 5903 5903 5903 5903 5902 5902 5902 5901 5900 5900 5899 5899 5898 5898 5897 5897 5896 5896 5896 5896 5895 5895 5895 5895 5895 5895 5895 5895 5895 5896 5897 5897 5898 5899 5900 5901 5902 5903 5904
5901 5901 5901 5901 5901 5900 5900 5900 5900 5899 5899 5898 5897 5896 5896 5895 5895 5894 5894 5893 5893 5892 5892 5892 5892 5892 5892 5892 5892 5892 5892 5892 5892 5893 5894 5894 5895 5897 5898 5899 5901 5902 5903
5899 5898 5898 5898 5898 5897 5897 5896 5896 5896 5895 5894 5893 5892 5892 5891 5890 5890 5889 5888 5888 5888 5888 5888 5888 5888 5888 5889 5889 5889 5889 5889 5890 5890 5891 5890 5892 5894 5895 5897 5898 5900 5902
5895 5895 5895 5895 5895 5894 5894 5893 5892 5892 5890 5889 5888 5888 5887 5886 5886 5885 5884 5883 5883 5883 5883 5884 5884 5884 5884 5884 5884 5885 5885 5885 5886 5886 5887 5887 5888 5890 5892 5894 5896 5897 5899
5891 5891 5891 5891 5891 5890 5890 5889 5888 5887 5886 5885 5884 5883 5883 5882 5881 5880 5879 5878 5878 5878 5878 5879 5879 5879 5879 5879 5880 5880 5881 5881 5881 5881 5882 5883 5884 5885 5888 5890 5892 5894 5896
5888 5888 5888 5887 5887 5887 5886 5885 5884 5883 5882 5881 5881 5880 5878 5877 5876 5875 5875 5874 5873 5873 5873 5873 5873 5873 5874 5874 5875 5875 5876 5876 5877 5877 5878 5877 5878 5880 5883 5886 5888 5890 5893
5884 5884 5884 5884 5884 5883 5882 5881 5880 5879 5878 5878 5876 5875 5874 5873 5872 5871 5870 5869 5868 5868 5868 5868 5868 5868 5868 5869 5870 5870 5871 5872 5873 5873 5873 5873 5874 5877 5879 5881 5883 5886 5888
5881 5881 5880 5880 5880 5880 5879 5878 5877 5876 5875 5874 5873 5872 5870 5869 5868 5867 5866 5865 5864 5864 5863 5863 5863 5863 5863 5864 5864 5865 5865 5867 5867 5868 5868 5869 5871 5872 5874 5876 5878 5881 5883
5878 5878 5877 5877 5877 5876 5876 5875 5873 5872 5871 5870 5869 5868 5867 5866 5864 5863 5862 5861 5860 5859 5859 5858 5858 5858 5858 5858 5859 5859 5860 5861 5862 5862 5863 5864 5866 5867 5869 5871 5873 5876 5878
5875 5875 5875 5874 5874 5873 5872 5871 5870 5869 5868 5867 5866 5865 5863 5862 5860 5858 5857 5857 5855 5854 5854 5853 5852 5853 5853 5853 5853 5854 5854 5855 5856 5857 5857 5859 5860 5862 5863 5865 5867 5870 5872
5872 5872 5872 5871 5871 5870 5869 5868 5867 5866 5864 5863 5862 5861 5859 5857 5856 5854 5853 5852 5850 5849 5848 5848 5847 5847 5847 5847 5847 5848 5849 5849 5850 5850 5851 5852 5854 5856 5858 5859 5861 5863 5866
5870 5869 5869 5869 5868 5868 5867 5866 5865 5863 5862 5860 5858 5857 5855 5853 5851 5849 5848 5847 5845 5844 5843 5842 5842 5841 5841 5841 5841 5841 5842 5843 5843 5844 5845 5846 5848 5849 5851 5853 5855 5857 5860
5867 5867 5867 5867 5866 5866 5865 5864 5862 5860 5859 5857 5855 5853 5851 5849 5847 5845 5843 5842 5840 5839 5838 5837 5836 5836 5835 5835 5835 5835 5835 5836 5836 5837 5838 5839 5841 5842 5844 5846 5848 5850 5853
5865 5866 5865 5865 5864 5864 5862 5861 5859 5857 5855 5853 5851 5849 5847 5845 5843 5841 5839 5837 5836 5834 5833 5832 5831 5830 5829 5829 5829 5829 5829 5830 5829 5830 5831 5832 5833 5835 5837 5838 5840 5843 5846
5863 5863 5863 5863 5862 5861 5860 5858 5856 5854 5852 5850 5848 5846 5844 5841 5839 5837 5835 5833 5832 5830 5829 5827 5826 5825 5823 5823 5822 5822 5822 5822 5822 5823 5823 5824 5825 5827 5829 5830 5833 5835 5838
5862 5861 5861 5861 5860 5859 5857 5855 5853 5851 5849 5847 5844 5842 5840 5838 5836 5834 5832 5830 5828 5826 5824 5823 5821 5819 5818 5817 5816 5815 5815 5814 5814 5815 5815 5816 5817 5819 5820 5822 5825 5827 5830
5860 5859 5859 5858 5857 5856 5854 5852 5850 5848 5846 5843 5841 5839 5837 5835 5832 5830 5828 5825 5823 5821 5819 5817 5815 5814 5812 5811 5809 5808 5808 5807 5806 5807 5807 5808 5809 5810 5812 5814 5816 5818 5821
5858 5857 5857 5856 5854 5853 5851 5849 5847 5845 5842 5840 5838 5835 5833 5831 5828 5826 5824 5821 5819 5816 5814 5812 5809 5807 5806 5804 5802 5801 5800 5800 5799 5799 5799 5799 5800 5801 5803 5805 5807 5809 5812